• In Kazakhstan
  • List of Countries
  • For 7 days
  • Water Temperature
  • Weather Map
  • News
  • Weather Widgets
  • user-avatar
    Login

    Hourly Weather Banjul

    Today, 9 April, Thursday

    Time Temperature Precipitation Wind Pressure Humidity
    00:00 +26°C° 0 mm 3 mps 756 mmHg 49%
    01:00 +26°C° 0 mm 3 mps 756 mmHg 48%
    02:00 +26°C° 0 mm 3 mps 755 mmHg 47%
    03:00 +25°C° 0 mm 3 mps 755 mmHg 45%
    04:00 +25°C° 0 mm 3 mps 755 mmHg 42%
    05:00 +25°C° 0 mm 3 mps 755 mmHg 40%
    06:00 +27°C° 0 mm 3 mps 756 mmHg 35%
    07:00 +29°C° 0 mm 4 mps 756 mmHg 31%
    08:00 +32°C° 0 mm 4 mps 756 mmHg 26%
    09:00 +35°C° 0 mm 4 mps 756 mmHg 22%
    10:00 +38°C° 0 mm 3 mps 756 mmHg 17%
    11:00 +42°C° 0 mm 3 mps 756 mmHg 12%
    12:00 +42°C° 0 mm 4 mps 755 mmHg 12%
    13:00 +43°C° 0 mm 5 mps 755 mmHg 11%
    14:00 +45°C° 0 mm 6 mps 754 mmHg 11%
    15:00 +41°C° 0 mm 6 mps 754 mmHg 17%
    16:00 +38°C° 0 mm 7 mps 754 mmHg 22%
    17:00 +35°C° 0 mm 7 mps 753 mmHg 28%
    18:00 +32°C° 0 mm 6 mps 754 mmHg 38%
    19:00 +29°C° 0 mm 5 mps 755 mmHg 48%
    20:00 +26°C° 0 mm 3 mps 756 mmHg 58%
    21:00 +26°C° 0 mm 3 mps 756 mmHg 59%
    22:00 +26°C° 0 mm 3 mps 756 mmHg 61%
    23:00 +25°C° 0 mm 3 mps 757 mmHg 62%

    Tomorrow, 10 April, Friday

    Time Temperature Precipitation Wind Pressure Humidity
    00:00 +25°C° 0 mm 3 mps 756 mmHg 61%
    01:00 +25°C° 0 mm 3 mps 756 mmHg 60%
    02:00 +25°C° 0 mm 3 mps 755 mmHg 59%
    03:00 +24°C° 0 mm 3 mps 755 mmHg 60%
    04:00 +24°C° 0 mm 3 mps 755 mmHg 60%
    05:00 +24°C° 0 mm 3 mps 755 mmHg 60%
    06:00 +25°C° 0 mm 3 mps 756 mmHg 55%
    07:00 +27°C° 0 mm 2 mps 757 mmHg 49%
    08:00 +29°C° 0 mm 1 mps 757 mmHg 43%
    09:00 +31°C° 0 mm 2 mps 757 mmHg 36%
    10:00 +35°C° 0 mm 2 mps 757 mmHg 29%
    11:00 +37°C° 0 mm 3 mps 756 mmHg 22%
    12:00 +38°C° 0 mm 4 mps 756 mmHg 22%
    13:00 +39°C° 0 mm 5 mps 755 mmHg 23%
    14:00 +40°C° 0 mm 6 mps 755 mmHg 23%
    15:00 +36°C° 0 mm 6 mps 754 mmHg 31%
    16:00 +34°C° 0 mm 6 mps 754 mmHg 38%
    17:00 +32°C° 0 mm 6 mps 754 mmHg 46%
    18:00 +29°C° 0 mm 5 mps 754 mmHg 55%
    19:00 +27°C° 0 mm 5 mps 755 mmHg 64%
    20:00 +25°C° 0 mm 4 mps 756 mmHg 72%
    21:00 +25°C° 0 mm 4 mps 756 mmHg 72%
    22:00 +25°C° 0 mm 4 mps 756 mmHg 72%
    23:00 +25°C° 0 mm 4 mps 756 mmHg 73%

    Day after tomorrow, 11 April, Saturday

    Time Temperature Precipitation Wind Pressure Humidity
    00:00 +25°C° 0 mm 4 mps 756 mmHg 72%
    01:00 +25°C° 0 mm 4 mps 756 mmHg 71%
    02:00 +23°C° 0 mm 5 mps 756 mmHg 71%
    03:00 +23°C° 0 mm 4 mps 756 mmHg 69%
    04:00 +23°C° 0 mm 4 mps 756 mmHg 68%
    05:00 +23°C° 0 mm 4 mps 756 mmHg 67%
    06:00 +25°C° 0 mm 3 mps 756 mmHg 61%
    07:00 +27°C° 0 mm 2 mps 756 mmHg 54%
    08:00 +28°C° 0 mm 2 mps 757 mmHg 48%
    09:00 +31°C° 0 mm 2 mps 757 mmHg 40%
    10:00 +35°C° 0 mm 3 mps 756 mmHg 31%
    11:00 +38°C° 0 mm 3 mps 756 mmHg 23%
    12:00 +38°C° 0 mm 4 mps 756 mmHg 26%
    13:00 +38°C° 0 mm 6 mps 755 mmHg 28%
    14:00 +38°C° 0 mm 7 mps 755 mmHg 31%
    15:00 +35°C° 0 mm 7 mps 755 mmHg 38%
    16:00 +33°C° 0 mm 7 mps 754 mmHg 46%
    17:00 +30°C° 0 mm 7 mps 754 mmHg 53%
    18:00 +28°C° 0 mm 6 mps 755 mmHg 61%
    19:00 +27°C° 0 mm 6 mps 756 mmHg 70%
    20:00 +25°C° 0 mm 5 mps 757 mmHg 78%
    21:00 +25°C° 0 mm 5 mps 757 mmHg 80%
    22:00 +25°C° 0 mm 5 mps 757 mmHg 81%
    23:00 +23°C° 0 mm 4 mps 757 mmHg 83%

    12 April, Sunday

    Time Temperature Precipitation Wind Pressure Humidity
    00:00 +23°C° 0 mm 4 mps 757 mmHg 84%
    01:00 +23°C° 0 mm 4 mps 757 mmHg 86%
    02:00 +24°C° 0 mm 3 mps 757 mmHg 88%
    03:00 +22°C° 0 mm 3 mps 757 mmHg 89%
    04:00 +22°C° 0 mm 4 mps 757 mmHg 90%
    05:00 +22°C° 0 mm 4 mps 756 mmHg 91%
    06:00 +23°C° 0 mm 4 mps 757 mmHg 83%
    07:00 +26°C° 0 mm 3 mps 757 mmHg 75%
    08:00 +27°C° 0 mm 3 mps 758 mmHg 67%
    09:00 +29°C° 0 mm 4 mps 758 mmHg 58%
    10:00 +32°C° 0 mm 4 mps 758 mmHg 49%
    11:00 +34°C° 0 mm 4 mps 757 mmHg 40%
    12:00 +35°C° 0 mm 4 mps 757 mmHg 40%
    13:00 +35°C° 0 mm 5 mps 756 mmHg 39%
    14:00 +35°C° 0 mm 5 mps 755 mmHg 39%
    15:00 +34°C° 0 mm 6 mps 755 mmHg 45%
    16:00 +32°C° 0 mm 6 mps 755 mmHg 50%
    17:00 +29°C° 0 mm 6 mps 755 mmHg 56%
    18:00 +28°C° 0 mm 6 mps 755 mmHg 64%
    19:00 +26°C° 0 mm 6 mps 756 mmHg 72%
    20:00 +25°C° 0 mm 5 mps 756 mmHg 80%
    21:00 +25°C° 0 mm 5 mps 757 mmHg 81%
    22:00 +23°C° 0 mm 4 mps 757 mmHg 83%
    23:00 +24°C° 0 mm 3 mps 757 mmHg 84%

    13 April, Monday

    Time Temperature Precipitation Wind Pressure Humidity
    00:00 +24°C° 0 mm 3 mps 757 mmHg 84%
    01:00 +24°C° 0 mm 3 mps 757 mmHg 84%
    02:00 +22°C° 0 mm 3 mps 756 mmHg 84%
    03:00 +23°C° 0 mm 2 mps 756 mmHg 85%
    04:00 +23°C° 0 mm 2 mps 756 mmHg 86%
    05:00 +23°C° 0 mm 1 mps 756 mmHg 86%
    06:00 +24°C° 0 mm 1 mps 757 mmHg 78%
    07:00 +26°C° 0 mm 2 mps 757 mmHg 69%
    08:00 +27°C° 0 mm 2 mps 757 mmHg 60%
    09:00 +30°C° 0 mm 2 mps 757 mmHg 50%
    10:00 +32°C° 0 mm 2 mps 757 mmHg 40%
    11:00 +36°C° 0 mm 2 mps 757 mmHg 29%
    12:00 +36°C° 0 mm 3 mps 756 mmHg 29%
    13:00 +37°C° 0 mm 4 mps 756 mmHg 28%
    14:00 +37°C° 0 mm 5 mps 755 mmHg 28%
    15:00 +35°C° 0 mm 6 mps 755 mmHg 34%
    16:00 +33°C° 0 mm 6 mps 754 mmHg 40%
    17:00 +30°C° 0 mm 7 mps 754 mmHg 46%
    18:00 +29°C° 0 mm 6 mps 755 mmHg 53%
    19:00 +27°C° 0 mm 6 mps 755 mmHg 59%
    20:00 +26°C° 0 mm 5 mps 756 mmHg 65%
    21:00 +25°C° 0 mm 5 mps 756 mmHg 68%
    22:00 +25°C° 0 mm 4 mps 757 mmHg 71%
    23:00 +25°C° 0 mm 4 mps 757 mmHg 73%

    14 April, Tuesday

    Time Temperature Precipitation Wind Pressure Humidity
    00:00 +25°C° 0 mm 4 mps 757 mmHg 73%
    01:00 +25°C° 0 mm 4 mps 757 mmHg 73%
    02:00 +25°C° 0 mm 4 mps 756 mmHg 72%
    03:00 +25°C° 0 mm 3 mps 756 mmHg 74%
    04:00 +24°C° 0 mm 3 mps 756 mmHg 76%
    05:00 +24°C° 0 mm 2 mps 757 mmHg 78%
    06:00 +25°C° 0 mm 2 mps 757 mmHg 72%
    07:00 +26°C° 0 mm 2 mps 757 mmHg 67%
    08:00 +27°C° 0 mm 2 mps 758 mmHg 62%
    09:00 +29°C° 0 mm 2 mps 758 mmHg 52%
    10:00 +31°C° 0 mm 3 mps 758 mmHg 42%
    11:00 +35°C° 0 mm 3 mps 758 mmHg 32%
    12:00 +36°C° 0 mm 4 mps 757 mmHg 30%
    13:00 +37°C° 0 mm 5 mps 757 mmHg 27%
    14:00 +39°C° 0 mm 6 mps 756 mmHg 25%
    15:00 +36°C° 0 mm 6 mps 755 mmHg 31%
    16:00 +34°C° 0 mm 6 mps 755 mmHg 37%
    17:00 +30°C° 0 mm 6 mps 755 mmHg 44%
    18:00 +29°C° 0 mm 6 mps 755 mmHg 46%
    19:00 +29°C° 0 mm 6 mps 756 mmHg 49%
    20:00 +28°C° 0 mm 6 mps 756 mmHg 52%
    21:00 +27°C° 0 mm 5 mps 756 mmHg 52%
    22:00 +27°C° 0 mm 5 mps 757 mmHg 51%
    23:00 +26°C° 0 mm 4 mps 757 mmHg 51%
    Show more